{"data":{"norad_id":69538,"epoch":"2026-09-20T03:24:02.651904Z","epoch_age_seconds":64361,"freshness":"FRESH","line1":"1 69538U 26134A   26263.14169736  .00003384  00000+0  21929-3 0  9996","line2":"2 69538  97.6929 333.5452 0014931 311.0380  48.9557 15.08737128 14638","mean_motion":15.08737128,"eccentricity":0.0014931,"inclination_deg":97.6929,"raan_deg":333.5452,"arg_perigee_deg":311.038,"mean_anomaly_deg":48.9557,"bstar":0.00021929,"rev_number":1463,"period_min":95.444062008925,"perigee_km":529.7282886562,"apogee_km":550.38740210348,"semimajor_km":6918.1948453798,"source":"CELESTRAK","updated_at":"2026-09-20T09:00:24.947806Z"}}